FW9069 Weather Reports


time (UTC)temp
C
wind
direction
speed
KPH
gust
KPH
rain 1hr
cm
rain 24hr
cm
rain mn
cm
humidity
%
barometer
mb
20260505183340 14 209 3.2 4.8 0.00 0.00 0.00 81 1017.2
20260505181824 13 231 1.6 4.8 0.00 0.00 0.00 81 1017.2
20260505180345 13 199 0.0 4.8 0.00 0.00 0.00 82 1017.1
20260505174827 13 197 3.2 6.4 0.00 0.00 0.00 83 1017.1
20260505173333 13 202 3.2 6.4 0.00 0.00 0.00 84 1017.0
20260505171815 13 134 1.6 4.8 0.00 0.00 0.00 86 1016.9
20260505170323 13 173 0.0 4.8 0.00 0.00 0.00 85 1016.9
20260505164851 12 173 1.6 3.2 0.00 0.00 0.00 86 1016.8
20260505163313 12 189 1.6 3.2 0.00 0.00 0.00 87 1016.8
20260505161829 12 193 1.6 3.2 0.00 0.00 0.00 88 1016.6
20260505160352 12 191 0.0 3.2 0.00 0.00 0.00 88 1016.7
20260505153344 11 188 1.6 3.2 0.00 0.00 0.00 90 1016.6
20260505151830 11 188 1.6 4.8 0.00 0.00 0.00 90 1016.6
20260505150334 11 188 1.6 4.8 0.00 0.00 0.00 91 1016.5
20260505140345 10 188 0.0 0.0 0.00 0.00 0.00 94 1016.0
20260505124826 10 188 0.0 1.6 0.00 0.00 0.00 94 1015.5
20260505123332 10 188 0.0 1.6 0.00 0.00 0.00 94 1015.5
20260505121824 10 188 0.0 3.2 0.00 0.00 0.00 94 1015.4
20260505120334 10 188 1.6 4.8 0.00 0.00 0.00 94 1015.2
20260505114821 10 196 3.2 9.7 0.00 0.00 0.00 94 1015.2
20260505113331 10 197 3.2 9.7 0.00 0.00 0.00 94 1015.1
20260505111821 10 181 4.8 11.3 0.00 0.00 0.00 94 1015.0
20260505110329 10 221 4.8 8.0 0.00 0.00 0.00 94 1014.9
20260505101832 10 183 1.6 6.4 0.00 0.00 0.00 94 1014.8
20260505100328 10 166 1.6 9.7 0.00 0.00 0.00 94 1014.6
20260505094818 10 180 1.6 6.4 0.00 0.00 0.00 94 1014.7
20260505093324 10 200 3.2 12.9 0.00 0.00 0.00 95 1014.6
20260505091830 10 182 4.8 12.9 0.00 0.00 0.00 95 1014.5
20260505090322 9 177 4.8 11.3 0.00 0.00 0.00 95 1014.5
20260505084830 9 175 4.8 9.7 0.00 0.00 0.00 94 1014.4
20260505083338 9 179 3.2 6.4 0.00 0.00 0.00 94 1014.6
20260505081823 10 177 1.6 6.4 0.00 0.00 0.00 94 1014.5
20260505080331 10 169 1.6 12.9 0.00 0.00 0.00 94 1014.3
20260505074855 10 175 4.8 12.9 0.00 0.00 0.00 93 1014.3
20260505073359 10 182 3.2 12.9 0.00 0.00 0.00 93 1014.3
20260505071826 10 176 3.2 9.7 0.00 0.00 0.00 93 1014.2
20260505070316 10 180 3.2 11.3 0.00 0.00 0.00 93 1013.9
20260505064826 10 190 3.2 6.4 0.00 0.00 0.00 92 1014.0
20260505063329 10 196 3.2 9.7 0.00 0.00 0.00 91 1013.9
20260505061817 10 169 3.2 9.7 0.00 0.00 0.00 90 1013.9
20260505060333 11 210 6.4 14.5 0.00 0.00 0.00 89 1013.9
20260505054823 11 192 6.4 11.3 0.00 0.00 0.00 89 1013.8
20260505053319 11 179 4.8 11.3 0.00 0.00 0.00 89 1013.8
20260505051848 11 232 4.8 9.7 0.00 0.00 0.00 88 1013.8
20260505050336 11 181 3.2 9.7 0.00 0.00 0.00 88 1013.6
20260505040359 12 181 6.4 16.1 0.00 0.00 0.00 84 1012.7
20260505034826 13 203 12.9 20.9 0.00 0.00 0.00 82 1012.4
20260505033338 13 237 12.9 22.5 0.00 0.00 0.00 80 1012.3
20260505031843 14 202 12.9 22.5 0.00 0.00 0.00 78 1012.0
20260505030332 15 216 14.5 25.7 0.00 0.00 0.00 75 1011.8
20260505024834 16 229 14.5 22.5 0.00 0.00 0.00 72 1011.8
20260505023323 17 215 8.0 14.5 0.00 0.00 0.00 70 1011.6
20260505021835 18 236 6.4 16.1 0.00 0.00 0.00 69 1011.7
20260505020323 20 220 8.0 16.1 0.00 0.00 0.00 67 1011.7
20260505014831 20 201 4.8 11.3 0.00 0.00 0.00 69 1011.7
20260505013337 20 179 6.4 14.5 0.00 0.00 0.00 70 1011.7
20260505011826 21 206 9.7 22.5 0.00 0.00 0.00 69 1011.8
20260505010334 21 184 6.4 14.5 0.00 0.00 0.00 71 1011.9
20260505004822 21 181 6.4 14.5 0.00 0.00 0.00 69 1011.9
20260505003331 21 205 6.4 17.7 0.00 0.00 0.00 68 1011.9
20260505001821 21 231 8.0 14.5 0.00 0.00 0.00 68 1011.8
20260505000330 22 128 3.2 11.3 0.00 0.00 0.00 67 1012.0
20260504234843 22 192 6.4 16.1 0.00 0.00 0.00 64 1012.1
20260504233352 23 221 4.8 17.7 0.00 0.00 0.00 66 1012.1
20260504231839 22 116 4.8 12.9 0.00 0.00 0.00 68 1012.3
20260504230325 22 134 6.4 17.7 0.00 0.00 0.00 69 1012.4
20260504224836 22 211 8.0 14.5 0.00 0.00 0.00 68 1012.4
20260504223342 21 207 1.6 14.5 0.00 0.00 0.00 71 1012.6
20260504221832 21 174 6.4 14.5 0.00 0.00 0.00 72 1012.7
20260504220338 21 180 3.2 16.1 0.00 0.00 0.00 70 1012.9
20260504214824 21 118 4.8 14.5 0.00 0.00 0.00 69 1013.1
20260504213336 21 181 6.4 14.5 0.00 0.00 0.00 66 1013.1
20260504211844 21 170 3.2 9.7 0.00 0.00 0.00 68 1013.3
20260504210331 21 169 6.4 12.9 0.00 0.00 0.00 69 1013.4
20260504204839 20 183 8.0 16.1 0.00 0.00 0.00 70 1013.7
20260504203327 20 129 6.4 12.9 0.00 0.00 0.00 74 1013.9
20260504201834 19 157 3.2 14.5 0.00 0.00 0.00 73 1013.8
20260504200326 18 138 3.2 12.9 0.00 0.00 0.00 75 1013.9
20260504194856 18 69 6.4 14.5 0.00 0.00 0.00 76 1013.9
20260504193326 17 174 3.2 16.1 0.00 0.00 0.00 75 1014.0
20260504191829 17 136 3.2 14.5 0.00 0.00 0.00 79 1014.1
20260504190341 16 127 4.8 16.1 0.00 0.00 0.00 78 1014.2